Location: Frankfurt am Main
(50.1109°N, 8.6821°E)
Time: 18:29:43
(UTC+02:00)

ISS - Pass Details

Date: 21 May 2021
Orbit: 419 x 422 km, 51.6° (Epoch: 24 June)

Event Time Altitude Azimuth Distance (km) Brightness Sun altitude
Rises 23:37:54 0° 281° (W) 2,293 0.5 -15.9°
Reaches altitude 10° 23:40:01 10° 283° (WNW) 1,423 -0.5 -16.0°
Maximum altitude 23:43:11 69° 8° (N) 413 -3.7 -16.2°
Enters shadow 23:45:04 21° 89° (E) 904 -2.3 -16.3°
